Starlink 31647

operational
NORAD ID: 59389 Int'l Des: 2024-062 Owner: SPXS Country: US Constellation: starlink
LEOCIRCULAR

About Starlink 31647

Description loading...

Live Position

Loading 3D Globe...

Upcoming Passes

Altitude History

Altitude vs Time

uPlot chart will show altitude changes over time

Two-Line Element Set

1 59389U 24062R 25302.83946474 .00001183 00000-0 52084-4 0 9991
2 59389 53.1601 143.7665 0001283 84.6549 275.4598 15.30195164 89635
Epoch: Oct 29, 2025 • Age: 35 hours

Current Status

Altitude 486.1 km
Velocity 7.62 km/s
Sub-Earth Point -32.83°S, 168.24°W
Launch Date Apr 2, 2024
Age 1.5 years
Type internet

Technical Details

Classification Payload
Mass 730.00 kg
Dry Mass 700.00 kg
Total Mass 730.00 kg
Length 0.30 m
Diameter 4.10 m
Span 29.00 m
Shape Box + pan
Manufacturer SPXS
Bus Type Starlink V2M
Phase Status In Orbit
Owner/State SPXS/US

Large Constellations

Loading constellations...